Theta_e
327 322 319 313 297 297 295 301 308 310 313 319 320 320 319 327 329 325 345 353 357 360 365 366 366 367 366 365 364 363 362 362 361 361 362 362 363 363 362 362 364 365 364 364 363 361 360 358 357
316 319 315 306 292 288 294 304 305 311 316 317 319 318 330 331 340 342 347 355 356 360 363 364 366 366 366 364 363 362 362 362 361 360 362 363 362 363 363 364 365 365 363 363 363 361 359 358 357
320 319 308 296 291 291 293 302 306 311 316 316 317 322 325 333 342 342 353 355 356 356 360 365 365 365 365 364 363 362 362 362 361 360 362 363 362 362 363 364 364 365 362 361 361 360 358 357 356
313 309 305 292 291 296 300 305 308 309 312 317 317 317 335 342 344 350 356 356 354 353 359 365 365 364 364 364 362 362 362 362 361 360 362 362 362 362 362 363 364 364 363 361 360 361 359 357 356
311 303 292 289 292 298 303 306 308 306 309 314 317 314 328 343 348 356 356 356 352 354 360 364 365 364 364 364 363 362 362 361 361 360 362 362 362 362 362 362 363 363 362 362 360 360 360 359 357
303 300 289 289 294 299 302 305 307 307 309 310 314 314 323 344 344 354 356 354 354 357 359 362 365 364 363 363 362 361 361 360 360 360 361 361 361 361 362 362 362 362 362 361 360 359 358 357 357
300 296 291 292 295 298 301 305 305 306 307 308 314 312 323 340 344 353 355 354 354 358 357 359 362 363 364 362 361 361 360 360 359 359 360 360 360 361 361 361 362 361 360 359 359 358 357 356 354
304 299 295 298 296 296 302 304 303 302 307 315 315 310 315 326 344 349 352 353 356 357 356 357 359 360 356 356 362 361 360 359 358 359 360 360 360 360 360 358 360 360 359 359 358 357 356 354 353
306 299 296 298 299 301 304 302 309 310 306 309 312 314 332 341 344 347 347 352 353 354 352 354 357 356 354 355 359 360 361 360 359 359 359 357 355 356 357 356 359 360 359 359 357 356 355 353 352
298 296 299 304 303 302 305 306 307 308 308 306 309 318 338 340 341 341 342 347 349 348 349 351 353 355 355 355 357 356 356 355 354 355 355 350 349 349 353 354 358 359 359 358 357 356 355 353 342
299 296 302 305 306 307 306 306 309 307 305 306 305 310 332 334 337 338 340 343 347 348 348 349 350 352 354 354 354 354 354 353 352 353 351 344 347 348 347 351 353 350 355 351 354 352 349 343 340
297 301 302 304 307 306 305 308 307 308 307 310 310 310 313 331 332 335 339 340 345 344 345 346 346 348 349 353 352 352 351 351 350 349 346 339 343 342 345 348 347 346 345 344 346 345 343 340 339
299 301 303 305 305 304 306 305 306 306 310 312 311 311 309 311 323 329 338 342 343 341 342 343 343 343 342 351 351 351 350 350 347 345 343 341 343 342 344 345 345 341 342 340 339 338 340 338 338
302 302 302 303 303 303 302 304 306 308 310 310 310 308 309 309 308 318 327 335 342 341 340 341 341 341 344 347 347 347 347 346 342 344 343 341 344 341 342 344 340 337 340 337 339 337 338 338 339
302 298 301 302 302 301 304 300 301 307 309 307 308 308 309 310 310 309 325 326 340 343 340 340 340 339 343 342 340 340 341 342 340 343 343 342 345 342 341 344 338 337 340 336 340 337 341 337 336
297 296 291 298 302 303 301 294 303 306 305 305 308 309 310 309 310 310 315 319 337 344 341 340 340 338 344 341 337 339 339 339 339 342 345 343 347 344 341 341 339 341 341 339 337 337 332 331 333
293 288 290 295 301 300 299 295 302 305 306 305 306 308 308 308 311 311 313 315 322 344 343 340 340 337 343 339 337 337 336 337 338 343 345 342 346 346 344 340 340 340 338 334 337 332 332 332 335
289 288 291 291 297 299 297 297 301 304 304 304 305 306 308 309 311 312 313 314 313 336 346 345 342 340 342 341 340 340 336 335 336 341 345 341 345 348 343 344 344 342 338 336 334 333 334 332 334
291 290 291 295 298 295 294 295 299 301 302 303 304 305 306 308 311 313 315 314 314 320 346 344 342 342 345 344 339 341 333 337 336 340 344 342 345 343 345 342 343 340 336 335 335 334 332 333 345
289 287 289 294 298 294 292 293 297 300 301 303 304 305 305 306 309 311 312 315 316 315 342 343 343 342 344 344 344 342 345 339 339 339 345 342 344 342 346 342 342 338 334 335 337 332 331 334 346
288 287 287 287 291 293 291 290 294 298 300 304 306 306 306 306 306 310 314 312 315 320 334 347 344 343 346 346 342 344 344 341 340 340 343 342 343 342 344 342 341 337 336 336 338 333 336 339 338
285 291 290 289 286 280 292 281 290 295 297 301 304 304 303 303 306 307 310 310 314 321 335 349 350 345 346 348 344 344 341 341 340 341 345 342 343 342 343 341 342 337 338 338 341 342 341 340 333
288 293 291 289 286 284 285 283 286 294 294 298 301 303 302 304 305 306 307 309 310 320 322 339 352 348 348 349 345 346 343 342 344 341 344 343 343 343 344 341 344 341 341 339 337 342 345 340 333
295 291 290 288 285 278 284 283 283 288 293 297 300 303 305 305 305 306 307 309 310 313 318 325 345 351 350 350 347 345 345 343 343 341 342 346 346 345 347 346 346 345 342 343 340 344 345 339 333
291 287 277 274 276 276 286 283 284 292 297 299 301 302 304 304 306 307 307 309 311 309 314 316 343 347 351 350 349 346 345 345 342 343 342 344 347 346 347 348 346 349 345 346 347 345 340 336 333
289 287 280 274 275 279 287 282 285 296 299 302 306 303 304 305 306 308 309 310 311 312 310 317 325 346 349 349 349 350 346 346 346 345 345 346 347 347 347 349 348 348 347 346 345 341 338 336 332
290 286 291 280 284 279 282 287 293 299 300 302 302 307 304 305 308 306 309 309 311 312 312 314 318 344 346 347 350 350 350 347 348 347 347 346 347 348 347 349 348 349 347 343 341 340 339 334 331
294 294 282 282 275 275 283 285 286 293 296 300 299 302 306 308 307 308 308 312 313 311 313 312 319 333 345 348 348 351 351 351 349 350 347 346 347 348 348 348 349 349 345 343 342 340 336 333 332
291 289 289 289 286 279 279 284 296 294 299 300 299 303 303 307 307 309 310 312 313 313 313 312 319 325 345 348 349 350 351 351 351 348 346 347 348 349 349 349 349 348 345 343 340 336 334 333 333
294 290 288 284 283 285 283 284 298 298 300 302 302 305 307 308 308 308 307 308 310 311 314 314 318 320 343 349 349 350 350 350 348 348 338 337 344 348 350 349 350 347 346 341 336 334 333 333 330
Wind_Speed
4 5 2 3 3 2 7 10 9 21 17 4 7 15 7 3 5 5 9 19 24 18 16 17 22 21 21 20 20 20 19 18 17 15 15 16 16 17 17 16 16 15 14 13 13 11 10 10 10
4 5 3 4 4 2 8 12 19 20 17 3 7 2 9 4 5 16 12 19 23 19 14 16 21 22 21 21 20 19 19 18 18 16 15 14 15 15 15 14 15 15 15 14 12 11 10 9 9
1 5 1 5 4 10 8 11 19 19 11 4 6 2 7 10 13 5 21 22 21 17 13 16 21 21 21 21 21 20 19 18 17 16 15 14 14 13 13 13 13 14 13 13 12 10 10 8 7
2 2 4 1 10 10 15 17 24 19 21 8 3 6 6 8 7 15 24 23 21 16 13 18 21 21 21 21 21 21 20 19 18 17 16 14 15 13 12 12 12 12 12 11 10 9 8 8 7
2 3 3 5 11 12 16 19 17 17 14 8 11 4 7 4 20 28 24 20 21 16 13 14 21 21 22 22 22 21 20 20 19 18 18 16 15 13 12 12 11 12 10 10 9 8 7 7 6
3 3 2 10 17 17 13 19 20 19 20 12 5 8 5 17 21 22 22 21 20 17 15 14 18 21 22 22 22 21 20 20 20 19 18 17 16 15 12 12 11 10 11 10 8 8 7 6 5
5 4 7 11 15 17 13 15 21 17 14 16 6 9 9 17 19 23 22 22 21 18 15 13 13 16 20 21 23 22 21 20 19 18 17 16 15 15 13 12 11 11 9 10 9 7 7 6 5
3 3 8 13 14 22 15 13 9 7 13 19 5 5 5 6 19 19 19 21 20 17 16 12 11 12 13 14 20 23 22 21 20 18 17 17 15 14 13 11 11 10 10 10 9 8 7 6 6
5 9 14 22 19 16 13 11 17 11 8 11 8 8 12 18 18 18 19 20 18 15 16 14 13 11 14 14 15 20 23 22 20 18 18 15 8 9 11 10 11 11 10 9 8 7 7 7 8
5 8 22 13 11 13 17 15 17 16 17 8 9 8 19 20 17 17 18 20 20 19 17 15 14 13 12 12 13 11 13 10 10 10 12 7 7 6 9 9 14 12 10 9 9 8 8 7 4
10 20 17 17 15 18 22 20 12 16 17 6 7 5 15 16 15 13 14 20 23 22 17 18 15 14 14 10 9 7 6 6 7 11 10 8 8 8 6 4 5 5 9 4 5 5 4 6 5
14 20 21 21 19 25 27 20 23 17 18 10 7 11 6 14 15 15 17 15 23 23 22 21 20 16 15 11 9 9 8 7 6 8 9 5 5 6 6 6 6 6 4 6 6 5 6 7 7
19 19 19 20 21 23 23 27 23 22 16 15 9 9 11 3 8 12 16 19 25 23 23 23 22 18 11 15 11 11 10 9 8 8 9 6 5 7 8 7 7 6 6 6 7 6 6 7 6
17 21 22 20 18 18 20 22 17 25 16 13 9 9 9 8 2 6 9 12 23 26 26 24 24 21 14 14 15 11 10 11 9 9 10 9 5 8 8 7 7 6 7 7 7 7 7 7 6
15 21 22 17 17 16 18 25 18 18 14 11 8 10 8 10 7 6 6 5 10 12 25 25 25 22 19 16 14 11 11 11 11 10 12 13 7 9 9 7 7 7 7 8 7 6 7 4 4
17 15 16 10 16 19 16 24 19 11 7 11 11 11 9 11 8 7 8 6 8 17 13 14 20 22 18 17 12 9 10 10 10 11 11 13 8 10 7 6 8 6 7 7 6 6 5 5 4
8 15 17 17 15 17 21 23 12 13 17 18 14 16 9 9 11 8 9 8 7 12 16 13 11 14 13 18 12 9 9 9 9 10 10 12 8 11 6 6 5 6 5 5 5 3 4 3 4
9 15 17 16 15 22 22 19 18 20 18 21 22 15 13 16 18 9 10 8 6 7 19 15 11 7 6 10 12 8 7 8 7 10 11 12 8 8 6 5 6 5 5 5 3 3 3 3 3
17 9 12 13 14 15 19 19 18 20 23 22 22 21 16 14 19 14 10 9 9 8 15 22 19 15 8 6 12 10 12 5 8 8 14 14 10 11 8 6 5 5 6 6 6 4 5 1 2
17 15 9 13 14 12 20 21 16 20 18 17 22 21 13 8 13 16 9 9 8 9 17 21 23 20 17 10 9 11 9 9 8 7 12 15 14 13 11 9 7 8 6 6 7 6 3 2 1
14 15 12 10 8 11 13 15 10 24 20 20 18 6 4 6 8 5 2 5 6 7 12 21 27 28 25 19 7 4 4 6 7 8 10 12 15 12 13 11 7 6 7 6 5 6 7 4 1
13 15 14 16 13 9 3 15 14 18 23 17 18 13 5 3 6 3 4 3 3 7 8 19 22 25 20 18 16 17 15 11 11 7 8 12 14 14 14 11 6 7 5 6 5 5 4 5 4
14 9 9 12 16 7 18 6 8 14 21 15 14 15 9 8 7 8 7 8 7 4 8 8 19 21 20 19 22 16 16 13 9 11 10 14 13 14 14 11 7 7 5 6 8 6 5 4 5
15 5 12 15 9 10 16 12 11 9 11 16 17 18 17 12 9 9 10 9 9 6 7 9 11 19 18 16 18 20 20 17 11 14 10 11 11 10 12 13 8 7 6 7 6 7 9 6 6
10 4 5 6 4 8 7 14 10 12 11 11 15 15 17 9 14 13 13 15 16 9 9 8 14 16 19 20 16 20 20 18 21 16 14 14 10 10 10 12 11 10 8 9 10 8 7 7 8
10 0 4 5 4 11 14 6 10 7 6 14 23 13 12 15 13 15 22 20 19 20 11 13 10 15 19 19 19 18 20 14 12 14 12 11 11 11 11 13 14 11 10 9 8 7 6 8 8
7 4 9 3 6 3 5 8 3 16 17 23 24 26 16 25 20 9 18 15 20 19 17 11 13 17 19 19 18 17 17 19 16 15 14 11 12 12 16 16 14 12 13 12 11 8 9 9 6
4 13 3 2 4 6 6 6 3 16 17 19 20 18 22 24 26 5 1 10 7 6 15 13 16 17 21 22 18 17 19 21 18 10 14 14 15 16 16 16 14 13 13 12 12 8 9 10 6
6 4 3 5 3 3 5 5 2 12 4 11 12 16 17 21 18 18 9 6 9 12 13 9 16 18 21 21 20 19 18 20 18 13 9 12 17 17 16 17 14 12 11 10 10 11 13 12 10
5 9 5 4 5 5 4 3 20 17 13 15 16 18 20 20 18 17 9 8 8 11 12 14 18 19 20 22 20 19 17 17 15 16 8 3 7 16 16 16 14 13 14 9 9 13 12 13 12
Wind_Direction
284 264 243 315 50 128 248 253 259 282 282 186 130 125 271 64 129 171 141 134 132 139 144 141 138 135 132 130 128 127 127 126 123 119 115 114 115 117 119 122 123 122 121 116 116 109 102 97 88
296 287 227 278 139 215 259 254 260 258 270 149 76 109 94 72 73 117 97 132 134 136 145 141 141 137 135 133 132 131 130 129 128 126 124 119 120 121 119 121 123 123 124 122 119 116 110 102 97
279 257 138 167 205 217 246 260 265 277 328 257 122 154 116 122 115 105 129 135 130 133 141 145 143 138 136 136 135 135 134 132 131 130 128 121 119 118 120 123 125 124 126 125 124 122 118 110 101
233 313 303 160 242 241 227 248 262 288 293 279 66 101 67 147 129 128 134 132 128 138 139 145 143 141 138 138 139 139 139 137 135 134 132 128 126 126 126 127 129 130 130 129 129 125 125 122 118
268 275 236 224 249 263 263 260 268 274 277 268 168 204 101 65 118 128 133 133 132 139 136 143 145 144 143 143 144 145 144 142 141 142 143 140 135 132 132 132 133 135 133 129 133 127 122 119 122
295 164 296 234 249 260 259 264 270 273 280 284 258 162 141 140 131 137 136 136 139 132 139 145 148 147 147 147 147 147 147 145 146 146 146 145 143 138 138 138 137 137 138 138 140 133 129 131 136
220 315 238 251 264 273 264 257 261 267 274 276 248 160 164 147 143 144 143 139 137 135 134 145 147 149 146 149 150 149 149 148 148 147 147 147 144 142 142 141 143 145 148 143 141 138 138 144 163
236 224 271 262 257 263 267 274 264 277 275 262 211 211 165 160 146 137 135 127 131 134 136 142 143 148 154 161 155 152 151 151 151 148 147 148 148 145 148 147 150 151 151 146 145 146 156 167 191
278 243 249 244 243 267 292 292 295 289 277 287 274 201 139 134 136 137 134 130 135 136 142 147 149 152 162 163 163 156 155 153 152 152 150 146 150 152 157 162 160 156 156 152 145 156 174 196 213
221 233 238 247 272 279 279 288 296 320 304 318 309 81 131 135 144 149 155 148 148 147 151 152 154 156 159 163 160 157 157 153 152 153 152 151 153 161 167 173 164 162 159 156 155 175 192 208 226
243 254 269 270 269 258 270 283 306 303 304 277 324 195 150 145 150 153 165 161 157 153 155 157 157 163 161 158 156 153 149 152 153 155 159 168 164 177 170 156 162 158 165 169 168 185 204 213 216
256 249 258 269 261 267 273 284 283 288 275 279 306 316 179 158 162 165 172 164 150 158 158 159 159 168 170 149 164 158 158 160 160 163 170 161 168 171 155 164 169 166 171 178 188 193 209 225 224
283 283 274 258 257 261 266 266 270 278 282 293 314 328 319 166 189 179 182 177 157 160 162 166 161 169 161 157 166 163 166 164 160 159 179 179 173 174 165 172 177 177 172 187 193 200 203 226 234
293 294 294 294 295 293 274 259 252 261 278 284 295 297 309 324 299 266 189 182 166 165 165 166 167 168 153 164 168 165 165 162 163 169 184 186 182 181 174 172 186 182 186 188 194 196 204 216 219
305 306 303 297 301 291 289 284 264 256 259 274 274 280 283 294 318 305 262 124 159 178 166 165 165 169 153 162 167 166 167 168 171 173 184 189 180 185 178 168 190 187 196 184 204 187 204 196 228
281 282 285 297 298 296 302 272 272 290 309 292 283 264 269 268 265 283 294 243 119 150 154 175 167 167 152 158 168 170 173 173 174 174 183 188 179 183 171 178 189 191 190 188 175 164 177 195 214
265 264 272 269 269 299 282 285 291 266 268 275 274 262 249 264 271 235 254 278 127 149 143 158 183 167 151 160 159 170 164 175 175 169 179 188 179 180 167 183 198 188 180 155 158 162 154 195 253
337 323 300 299 306 313 307 312 335 320 286 236 251 244 240 243 250 228 231 232 248 161 152 138 150 169 193 180 160 147 162 180 167 175 178 179 177 170 178 184 204 176 174 170 144 155 218 185 203
313 276 269 276 289 294 287 289 301 311 302 282 230 242 231 237 224 232 232 216 230 160 149 147 152 173 162 190 172 164 179 167 182 170 173 177 174 182 184 195 194 185 167 167 170 160 174 220 134
310 298 254 259 277 308 319 301 308 294 284 293 297 223 217 222 214 221 233 229 203 201 156 167 167 174 180 184 194 177 162 179 189 173 173 177 184 185 185 194 193 187 163 159 182 168 139 141 125
295 299 303 313 321 280 294 292 314 309 311 314 302 290 142 209 207 192 156 219 227 212 170 166 174 179 178 174 181 176 147 186 185 186 177 188 187 186 186 194 177 180 165 180 167 176 148 142 71
314 318 321 316 308 285 287 302 310 299 299 300 299 304 250 267 313 319 292 259 239 217 201 164 166 174 178 169 175 181 188 186 200 189 179 188 189 188 187 191 156 186 174 172 178 178 158 125 140
304 341 341 320 315 326 282 254 262 292 284 285 293 286 259 214 228 253 265 247 242 205 179 185 159 170 174 179 182 183 189 196 183 193 170 186 189 189 184 178 158 180 189 183 173 176 147 143 146
311 5 329 302 273 259 257 251 267 252 264 277 283 296 302 242 232 224 234 244 246 207 205 167 175 169 174 176 187 189 190 192 190 194 187 186 185 184 182 173 162 178 195 178 172 176 170 143 115
315 50 328 326 3 272 270 245 229 252 231 259 283 286 288 271 251 233 215 222 245 225 199 205 178 183 178 182 184 196 199 197 199 194 193 182 175 183 178 171 177 187 183 174 173 159 150 143 137
340 270 183 292 293 295 292 264 239 250 286 10 340 277 293 307 291 251 224 215 215 228 204 197 198 188 185 183 193 196 207 203 198 200 190 185 179 173 172 179 187 180 158 158 165 153 149 134 132
351 349 306 172 248 271 253 285 287 19 7 360 347 350 353 350 294 268 224 206 206 218 227 186 198 193 182 190 194 197 204 211 207 198 196 175 177 182 184 189 184 175 165 162 165 160 147 138 142
295 300 320 308 300 301 302 299 5 1 359 353 347 331 343 347 334 344 326 68 41 292 224 201 195 196 189 193 198 200 202 207 212 190 192 186 181 183 185 190 183 176 167 164 163 152 143 138 139
358 6 355 271 143 264 328 315 144 7 17 295 331 345 344 320 338 333 3 38 19 16 26 256 198 194 193 190 193 199 203 209 205 203 196 190 178 179 180 177 172 166 161 171 168 148 142 143 136
218 322 328 326 351 287 235 308 39 32 4 344 337 343 338 325 328 323 320 22 23 28 1 5 352 202 194 190 195 197 200 206 209 204 162 205 186 173 169 169 160 166 160 164 167 152 150 140 141